Location: Buchloe
(48.0161°N, 10.7316°E)
Time: 16:05:12
(UTC+02:00)

ISS - Pass Details

Date: 21 May 2018
Orbit: 402 x 407 km, 51.6° (Epoch: 23 May)

Event Time Altitude Azimuth Distance (km) Brightness Sun altitude
Rises 03:56:35 0° 292° (WNW) 2,319 -0.2 -12.7°
Reaches altitude 10° 03:58:41 10° 289° (WNW) 1,457 -1.2 -12.5°
Maximum altitude 04:01:53 60° 209° (SSW) 467 -3.9 -12.1°
Drops below altitude 10° 04:05:06 10° 129° (SE) 1,451 -1.0 -11.8°
Sets 04:07:11 0° 125° (SE) 2,307 0.1 -11.6°
